Iowa Falls, IA

10:28 AM CST on December 09, 2019 (GMT -0600)
Iowa Falls Municipal

Weather History for KIFA - October, 2019

Change the Weather History Date:

Sunday, October 20, 2019

  Actual Average Record
Temperature  
Mean Temperature 50 °F -  
Max Temperature 64 °F 60 °F 84 °F (1953)
Min Temperature 35 °F 36 °F 15 °F (1960)
Degree Days  
Heating Degree Days 16    
Moisture  
Dew Point 40 °F    
Average Humidity 67    
Maximum Humidity 88    
Minimum Humidity 38    
Precipitation  
Precipitation 0.00 in - - ()
Sea Level Pressure  
Sea Level Pressure 29.81 in    
Wind  
Wind Speed 3 mph ()    
Max Wind Speed 18 mph    
Max Gust Speed 21 mph    
Visibility 9.6 miles    
Events Rain    
Averages and records for this station are not official NWS values.
T = Trace of Precipitation, MM = Missing Value Source: Averaged Metar Reports

Daily Weather History Graph

Daily Weather History Graph

Search for Another Location

Airport or City:

Astronomy

Oct. 20, 2019 Rise Set
Actual Time 7:31 AM CDT 6:23 PM CDT
Civil Twilight 7:03 AM CDT 6:51 PM CDT
Nautical Twilight 6:30 AM CDT 7:24 PM CDT
Astronomical Twilight 5:57 AM CDT 7:57 PM CDT
Moon 11:28 PM CDT (10/20) 2:05 PM CDT (10/20)
Length of Visible Light 11h 48m
Length of Day
10h 51m
Waning Gibbous, 59% of the Moon is Illuminated
Oct 20
Waning Gibbous
Oct 21
Last Quarter
Oct 27
New
Nov 4
First Quarter
Nov 12
Full

Hourly Weather History & Observations

Time (CDT) Temp. Dew Point Humidity Pressure Visibility Wind Dir Wind Speed Gust Speed Precip Events Conditions
12:15 AM 45.7 °F 41.0 °F 84% 29.80 in 10.0 mi Calm Calm - N/A   Clear
12:35 AM 46.4 °F 41.7 °F 84% 29.80 in 10.0 mi Calm Calm - N/A   Clear
12:55 AM 45.3 °F 40.5 °F 83% 29.80 in 10.0 mi Calm Calm - N/A   Clear
1:15 AM 44.8 °F 40.1 °F 84% 29.80 in 10.0 mi Calm Calm - N/A   Clear
1:35 AM 42.4 °F 37.9 °F 84% 29.80 in 10.0 mi Calm Calm - N/A   Clear
1:55 AM 42.3 °F 37.8 °F 84% 29.80 in 10.0 mi Calm Calm - N/A   Clear
2:15 AM 41.7 °F 37.6 °F 85% 29.80 in 7.0 mi Calm Calm - N/A   Clear
2:35 AM 40.6 °F 36.7 °F 86% 29.80 in 2.5 mi Calm Calm - N/A   Clear
2:55 AM 40.3 °F 36.5 °F 86% 29.81 in 7.0 mi Calm Calm - N/A   Clear
3:15 AM 41.5 °F 37.8 °F 86% 29.81 in 10.0 mi Calm Calm - N/A   Clear
3:35 AM 38.3 °F 33.8 °F 84% 29.81 in 7.0 mi Calm Calm - N/A   Clear
3:55 AM 41.0 °F 37.8 °F 88% 29.81 in 2.5 mi Calm Calm - N/A   Clear
4:15 AM 38.1 °F 33.8 °F 84% 29.81 in 10.0 mi Calm Calm - N/A   Clear
4:35 AM 37.2 °F 33.3 °F 86% 29.81 in 10.0 mi Calm Calm - N/A   Clear
4:55 AM 38.5 °F 34.9 °F 87% 29.82 in 10.0 mi Calm Calm - N/A   Clear
5:15 AM 39.9 °F 36.1 °F 86% 29.82 in 10.0 mi Calm Calm - N/A   Clear
5:35 AM 37.9 °F 34.0 °F 86% 29.83 in 10.0 mi Calm Calm - N/A   Clear
5:55 AM 35.4 °F 32.0 °F 87% 29.84 in 10.0 mi Calm Calm - N/A   Clear
6:15 AM 35.4 °F 32.0 °F 87% 29.84 in 10.0 mi Calm Calm - N/A   Clear
6:35 AM 36.1 °F 32.4 °F 86% 29.84 in 10.0 mi Calm Calm - N/A   Clear
6:55 AM 37.2 °F 33.6 °F 87% 29.85 in 10.0 mi Calm Calm - N/A   Clear
7:15 AM 37.4 °F 33.3 °F 85% 29.84 in 10.0 mi Calm Calm - N/A   Clear
7:35 AM 36.1 °F 32.2 °F 86% 29.85 in 10.0 mi Calm Calm - N/A   Clear
7:55 AM 35.6 °F 32.0 °F 87% 29.85 in 10.0 mi Calm Calm - N/A   Clear
8:15 AM 38.3 °F 34.7 °F 87% 29.85 in 7.0 mi Calm Calm - N/A   Clear
8:35 AM 39.9 °F 36.3 °F 87% 29.86 in 10.0 mi Calm Calm - N/A   Clear
8:55 AM 45.3 °F 41.7 °F 87% 29.86 in 10.0 mi Calm Calm - N/A   Clear
9:15 AM 49.1 °F 43.9 °F 82% 29.87 in 10.0 mi Calm Calm - N/A   Clear
9:55 AM 52.7 °F 45.3 °F 76% 29.87 in 10.0 mi Calm Calm - N/A   Clear
10:15 AM 54.9 °F 45.9 °F 72% 29.87 in 10.0 mi ESE 3.5 mph - N/A   Clear
10:35 AM 57.2 °F 46.4 °F 67% 29.87 in 10.0 mi SE 4.6 mph - N/A   Clear
10:55 AM 58.8 °F 45.5 °F 61% 29.88 in 10.0 mi ESE 4.6 mph - N/A   Clear
11:15 AM 59.2 °F 45.9 °F 61% 29.88 in 10.0 mi SSE 3.5 mph - N/A   Clear
11:35 AM 61.5 °F 44.8 °F 54% 29.88 in 10.0 mi SE 5.8 mph - N/A   Clear
11:55 AM 62.6 °F 44.4 °F 51% 29.87 in 10.0 mi SE 6.9 mph - N/A   Clear
12:15 PM 62.6 °F 43.9 °F 50% 29.87 in 10.0 mi SE 8.1 mph - N/A   Clear
12:35 PM 61.9 °F 42.8 °F 50% 29.87 in 10.0 mi SE 8.1 mph - N/A   Clear
12:55 PM 62.2 °F 43.9 °F 51% 29.87 in 10.0 mi SE 6.9 mph - N/A   Clear
1:15 PM 62.6 °F 44.2 °F 51% 29.86 in 10.0 mi SE 8.1 mph - N/A   Clear
1:35 PM 63.9 °F 45.0 °F 50% 29.85 in 10.0 mi SE 8.1 mph - N/A   Clear
1:55 PM 63.5 °F 43.5 °F 48% 29.84 in 10.0 mi SE 11.5 mph - N/A   Clear
2:15 PM 63.9 °F 43.0 °F 47% 29.83 in 10.0 mi SE 8.1 mph - N/A   Clear
2:35 PM 64.4 °F 39.6 °F 40% 29.82 in 10.0 mi SE 10.4 mph 19.6 mph N/A   Clear
2:55 PM 63.9 °F 39.2 °F 40% 29.81 in 10.0 mi SE 13.8 mph - N/A   Clear
3:35 PM 63.9 °F 37.6 °F 38% 29.81 in 10.0 mi SE 18.4 mph - N/A   Clear
3:55 PM 63.9 °F 37.9 °F 38% 29.81 in 10.0 mi SE 12.7 mph - N/A   Clear
4:15 PM 63.5 °F 40.5 °F 43% 29.80 in 10.0 mi ESE 15.0 mph - N/A   Clear
4:35 PM 63.0 °F 39.0 °F 41% 29.80 in 10.0 mi SE 12.7 mph - N/A   Clear
4:55 PM 62.8 °F 38.1 °F 40% 29.80 in 10.0 mi SE 10.4 mph 16.1 mph N/A   Clear
5:15 PM 62.1 °F 39.0 °F 43% 29.79 in 10.0 mi ESE 10.4 mph 16.1 mph N/A   Clear
5:35 PM 61.3 °F 39.7 °F 45% 29.79 in 10.0 mi SE 10.4 mph - N/A   Clear
5:55 PM 60.4 °F 38.7 °F 45% 29.79 in 10.0 mi ESE 10.4 mph - N/A   Clear
6:35 PM 58.1 °F 36.7 °F 45% 29.78 in 10.0 mi ESE 6.9 mph - N/A   Clear
6:55 PM 57.2 °F 37.6 °F 48% 29.78 in 10.0 mi ESE 8.1 mph - N/A   Clear
7:15 PM 56.5 °F 37.2 °F 49% 29.78 in 10.0 mi ESE 10.4 mph - N/A   Clear
7:35 PM 56.3 °F 36.9 °F 48% 29.77 in 10.0 mi ESE 10.4 mph - N/A   Clear
7:55 PM 56.3 °F 37.8 °F 50% 29.78 in 10.0 mi ESE 8.1 mph - N/A   Clear
8:15 PM 55.8 °F 39.4 °F 54% 29.79 in 10.0 mi ESE 8.1 mph - N/A   Clear
8:35 PM 55.4 °F 40.1 °F 56% 29.79 in 10.0 mi SE 6.9 mph - N/A   Clear
8:55 PM 54.9 °F 41.0 °F 60% 29.80 in 10.0 mi SE 6.9 mph - N/A   Scattered Clouds
9:15 PM 54.1 °F 41.0 °F 61% 29.79 in 10.0 mi ESE 6.9 mph - N/A   Mostly Cloudy
9:35 PM 54.0 °F 41.5 °F 63% 29.78 in 10.0 mi ESE 9.2 mph - N/A   Overcast
9:55 PM 54.0 °F 41.9 °F 64% 29.78 in 10.0 mi ESE 10.4 mph - N/A Rain Light Rain
10:15 PM 52.7 °F 43.3 °F 70% 29.75 in 10.0 mi East 15.0 mph - N/A Rain Rain
10:35 PM 52.5 °F 44.6 °F 74% 29.73 in 10.0 mi East 13.8 mph 19.6 mph N/A   Drizzle
10:55 PM 52.7 °F 44.6 °F 74% 29.72 in 10.0 mi ESE 13.8 mph 20.7 mph N/A   Light Drizzle
11:15 PM 53.1 °F 44.4 °F 72% 29.69 in 10.0 mi East 13.8 mph 20.7 mph N/A Rain Light Rain
11:35 PM 53.1 °F 44.4 °F 72% 29.67 in 10.0 mi East 15.0 mph 20.7 mph N/A Rain Rain
11:55 PM 52.3 °F 44.2 °F 74% 29.66 in 10.0 mi East 12.7 mph 20.7 mph N/A   Overcast